Location: Columbia
(38.9520°N, 92.3340°W)
Time: 03:39:37
(UTC-05:00)

Tiangong 1 - Visible Passes

Search period start: 07 May 2015 00:00
Search period end: 17 May 2015 00:00
Orbit: 382 x 396 km, 42.8° (Epoch: 07 May)

Date Brightness Start Highest point End Pass type
(mag) Time Alt. Az. Time Alt. Az. Time Alt. Az.
07 May 2.8 03:40:17 32° ENE 03:40:17 32° ENE 03:42:19 10° E visible
07 May 1.3 05:13:04 10° WNW 05:16:08 50° SSW 05:19:11 10° SE visible
08 May 0.9 04:17:39 70° W 04:17:57 84° SSW 04:21:05 10° ESE visible
09 May 2.1 04:55:24 22° WSW 04:56:21 26° SSW 04:59:03 10° SSE visible
11 May 2.3 21:08:09 10° SSW 21:10:42 22° SSE 21:11:56 18° ESE visible
11 May 4.1 22:44:10 10° WSW 22:44:19 11° WSW 22:44:19 11° WSW visible
12 May 0.9 21:45:45 10° WSW 21:48:56 72° SSE 21:49:53 40° E visible
13 May 1.5 20:47:31 10° SW 20:50:33 41° SSE 20:53:34 10° E visible
13 May 1.9 22:24:14 10° W 22:27:18 50° NNW 22:27:18 50° NNW visible
14 May 1.3 21:25:38 10° WSW 21:28:49 70° NNW 21:32:00 10° ENE visible
14 May 3.5 23:02:52 10° WNW 23:04:18 22° WNW 23:04:18 22° WNW visible
15 May 2.3 22:04:13 10° WNW 22:07:16 41° N 22:08:43 24° NE visible
16 May 2.0 21:05:30 10° W 21:08:37 49° NNW 21:11:44 10° ENE visible
16 May 2.5 22:42:42 10° WNW 22:45:13 38° NNW 22:45:13 38° NNW visible
